| time (UTC) | temp C | wind direction | speed KPH | gust KPH | rain 1hr cm | rain 24hr cm | rain mn cm | humidity % | barometer mb |
| 20260503214446 | 31 | 261 | 8.0 | 20.9 | 0.00 | 0.00 | 0.00 | 12 | |
| 20260503213442 | 30 | 271 | 4.8 | 9.7 | 0.00 | 0.00 | 0.00 | 12 | |
| 20260503212440 | 30 | 267 | 8.0 | 20.9 | 0.00 | 0.00 | 0.00 | 12 | |
| 20260503211440 | 30 | 220 | 6.4 | 24.1 | 0.00 | 0.00 | 0.00 | 13 | |
| 20260503210439 | 31 | 213 | 11.3 | 16.1 | 0.00 | 0.00 | 0.00 | 11 | |
| 20260503205437 | 30 | 222 | 8.0 | 14.5 | 0.00 | 0.00 | 0.00 | 11 | |
| 20260503204436 | 30 | 207 | 17.7 | 27.4 | 0.00 | 0.00 | 0.00 | 10 | |
| 20260503203436 | 30 | 259 | 6.4 | 12.9 | 0.00 | 0.00 | 0.00 | 12 | |
| 20260503202431 | 30 | 250 | 9.7 | 17.7 | 0.00 | 0.00 | 0.00 | 11 | |
| 20260503201426 | 30 | 180 | 9.7 | 16.1 | 0.00 | 0.00 | 0.00 | 11 | |
| 20260503200425 | 30 | 294 | 6.4 | 11.3 | 0.00 | 0.00 | 0.00 | 10 | |
| 20260503195420 | 29 | 194 | 8.0 | 25.7 | 0.00 | 0.00 | 0.00 | 10 | |
| 20260503194418 | 30 | 195 | 9.7 | 14.5 | 0.00 | 0.00 | 0.00 | 11 | |
| 20260503193415 | 30 | 188 | 9.7 | 20.9 | 0.00 | 0.00 | 0.00 | 12 | |
| 20260503192414 | 29 | 243 | 8.0 | 20.9 | 0.00 | 0.00 | 0.00 | 14 | |
| 20260503191413 | 29 | 178 | 3.2 | 6.4 | 0.00 | 0.00 | 0.00 | 15 | |
| 20260503190413 | 28 | 271 | 11.3 | 20.9 | 0.00 | 0.00 | 0.00 | 14 | |
| 20260503185412 | 28 | 212 | 16.1 | 20.9 | 0.00 | 0.00 | 0.00 | 15 | |
| 20260503184408 | 28 | 251 | 6.4 | 16.1 | 0.00 | 0.00 | 0.00 | 16 | |
| 20260503183406 | 28 | 60 | 3.2 | 4.8 | 0.00 | 0.00 | 0.00 | 16 | |
| 20260503182402 | 27 | 84 | 4.8 | 6.4 | 0.00 | 0.00 | 0.00 | 17 | |
| 20260503181402 | 28 | 277 | 3.2 | 6.4 | 0.00 | 0.00 | 0.00 | 20 | |
| 20260503180402 | 27 | 62 | 1.6 | 9.7 | 0.00 | 0.00 | 0.00 | 20 | |
| 20260503175403 | 27 | 93 | 8.0 | 9.7 | 0.00 | 0.00 | 0.00 | 20 | |
| 20260503174402 | 26 | 20 | 4.8 | 11.3 | 0.00 | 0.00 | 0.00 | 22 | |
| 20260503173359 | 26 | 85 | 3.2 | 4.8 | 0.00 | 0.00 | 0.00 | 21 | |
| 20260503172359 | 26 | 70 | 1.6 | 3.2 | 0.00 | 0.00 | 0.00 | 21 | |
| 20260503171358 | 26 | 74 | 1.6 | 4.8 | 0.00 | 0.00 | 0.00 | 21 | |
| 20260503170357 | 26 | 81 | 0.0 | 6.4 | 0.00 | 0.00 | 0.00 | 22 | |
| 20260503150326 | 21 | 171 | 3.2 | 3.2 | 0.00 | 0.00 | 0.00 | 34 | |
| 20260503140314 | 17 | 77 | 1.6 | 1.6 | 0.00 | 0.00 | 0.00 | 44 | |
| 20260503131308 | 13 | 44 | 1.6 | 4.8 | 0.00 | 0.00 | 0.00 | 54 | |
| 20260503130302 | 13 | 65 | 0.0 | 1.6 | 0.00 | 0.00 | 0.00 | 51 | |
| 20260503110241 | 12 | 60 | 1.6 | 4.8 | 0.00 | 0.00 | 0.00 | 50 | |
| 20260503100224 | 13 | 41 | 4.8 | 4.8 | 0.00 | 0.00 | 0.00 | 48 | |
| 20260503090217 | 15 | 69 | 0.0 | 0.0 | 0.00 | 0.00 | 0.00 | 44 | |
| 20260503081208 | 15 | 72 | 0.0 | 0.0 | 0.00 | 0.00 | 0.00 | 44 | |
| 20260503080206 | 15 | 79 | 0.0 | 0.0 | 0.00 | 0.00 | 0.00 | 45 | |
| 20260503072157 | 15 | 76 | 0.0 | 1.6 | 0.00 | 0.00 | 0.00 | 44 | |
| 20260503071156 | 15 | 82 | 0.0 | 1.6 | 0.00 | 0.00 | 0.00 | 44 | |
| 20260503070151 | 16 | 74 | 0.0 | 0.0 | 0.00 | 0.00 | 0.00 | 44 | |
| 20260503060133 | 18 | 79 | 3.2 | 3.2 | 0.00 | 0.00 | 0.00 | 39 | |
| 20260503054129 | 19 | 300 | 3.2 | 4.8 | 0.00 | 0.00 | 0.00 | 37 | |
| 20260503053125 | 18 | 61 | 1.6 | 1.6 | 0.00 | 0.00 | 0.00 | 39 | |
| 20260503052123 | 18 | 91 | 0.0 | 1.6 | 0.00 | 0.00 | 0.00 | 39 | |
| 20260503051123 | 20 | 101 | 3.2 | 4.8 | 0.00 | 0.00 | 0.00 | 36 | |
| 20260503050122 | 19 | 130 | 1.6 | 3.2 | 0.00 | 0.00 | 0.00 | 37 | |
| 20260503045122 | 19 | 82 | 1.6 | 3.2 | 0.00 | 0.00 | 0.00 | 37 | |
| 20260503044122 | 20 | 87 | 1.6 | 1.6 | 0.00 | 0.00 | 0.00 | 36 | |
| 20260503043121 | 20 | 76 | 1.6 | 1.6 | 0.00 | 0.00 | 0.00 | 36 | |
| 20260503042120 | 20 | 92 | 3.2 | 3.2 | 0.00 | 0.00 | 0.00 | 35 | |
| 20260503041115 | 20 | 100 | 1.6 | 3.2 | 0.00 | 0.00 | 0.00 | 35 | |
| 20260503040115 | 21 | 108 | 3.2 | 4.8 | 0.00 | 0.00 | 0.00 | 34 | |
| 20260503035115 | 21 | 81 | 0.0 | 3.2 | 0.00 | 0.00 | 0.00 | 33 | |
| 20260503034115 | 21 | 100 | 1.6 | 3.2 | 0.00 | 0.00 | 0.00 | 32 | |
| 20260503033110 | 21 | 121 | 3.2 | 3.2 | 0.00 | 0.00 | 0.00 | 32 | |
| 20260503032106 | 22 | 87 | 0.0 | 3.2 | 0.00 | 0.00 | 0.00 | 31 | |
| 20260503031101 | 22 | 107 | 1.6 | 3.2 | 0.00 | 0.00 | 0.00 | 30 | |
| 20260503030100 | 23 | 39 | 1.6 | 6.4 | 0.00 | 0.00 | 0.00 | 29 | |
| 20260503025100 | 23 | 134 | 1.6 | 3.2 | 0.00 | 0.00 | 0.00 | 29 | |
| 20260503024059 | 23 | 63 | 3.2 | 4.8 | 0.00 | 0.00 | 0.00 | 28 | |
| 20260503023059 | 23 | 279 | 6.4 | 11.3 | 0.00 | 0.00 | 0.00 | 28 | |
| 20260503022056 | 24 | 335 | 3.2 | 6.4 | 0.00 | 0.00 | 0.00 | 27 | |
| 20260503021056 | 24 | 243 | 4.8 | 6.4 | 0.00 | 0.00 | 0.00 | 26 | |
| 20260503020056 | 25 | 293 | 4.8 | 14.5 | 0.00 | 0.00 | 0.00 | 26 | |
| 20260503015056 | 25 | 284 | 9.7 | 14.5 | 0.00 | 0.00 | 0.00 | 25 | |
| 20260503014055 | 25 | 256 | 6.4 | 14.5 | 0.00 | 0.00 | 0.00 | 25 | |
| 20260503013050 | 26 | 100 | 8.0 | 11.3 | 0.00 | 0.00 | 0.00 | 25 | |
| 20260503012050 | 26 | 202 | 14.5 | 20.9 | 0.00 | 0.00 | 0.00 | 24 | |
| 20260503011049 | 26 | 219 | 11.3 | 17.7 | 0.00 | 0.00 | 0.00 | 23 | |
| 20260503010049 | 27 | 231 | 12.9 | 17.7 | 0.00 | 0.00 | 0.00 | 23 | |
| 20260503005048 | 27 | 260 | 12.9 | 20.9 | 0.00 | 0.00 | 0.00 | 22 | |
| 20260503004048 | 28 | 230 | 6.4 | 12.9 | 0.00 | 0.00 | 0.00 | 22 | |
| 20260503003048 | 28 | 186 | 20.9 | 27.4 | 0.00 | 0.00 | 0.00 | 21 | |
| 20260503002047 | 28 | 241 | 12.9 | 17.7 | 0.00 | 0.00 | 0.00 | 21 | |
| 20260503001046 | 28 | 259 | 16.1 | 27.4 | 0.00 | 0.00 | 0.00 | 21 | |
| 20260503000046 | 29 | 269 | 9.7 | 16.1 | 0.00 | 0.00 | 0.00 | 20 | |
| 20260502235041 | 28 | 204 | 12.9 | 25.7 | 0.00 | 0.00 | 0.00 | 21 | |
| 20260502234040 | 29 | 49 | 8.0 | 17.7 | 0.00 | 0.00 | 0.00 | 21 | |
| 20260502233037 | 30 | 255 | 16.1 | 29.0 | 0.00 | 0.00 | 0.00 | 20 | |
| 20260502232037 | 30 | 293 | 9.7 | 16.1 | 0.00 | 0.00 | 0.00 | 20 | |
| 20260502231031 | 30 | 210 | 14.5 | 27.4 | 0.00 | 0.00 | 0.00 | 20 | |
| 20260502230028 | 30 | 346 | 4.8 | 22.5 | 0.00 | 0.00 | 0.00 | 20 | |
| 20260502225025 | 30 | 239 | 17.7 | 25.7 | 0.00 | 0.00 | 0.00 | 20 | |
| 20260502224025 | 30 | 259 | 9.7 | 24.1 | 0.00 | 0.00 | 0.00 | 19 | |
| 20260502223020 | 30 | 282 | 6.4 | 17.7 | 0.00 | 0.00 | 0.00 | 19 | |
| 20260502222019 | 30 | 252 | 11.3 | 22.5 | 0.00 | 0.00 | 0.00 | 19 | |
| 20260502221019 | 31 | 237 | 22.5 | 27.4 | 0.00 | 0.00 | 0.00 | 18 | |
| 20260502220017 | 30 | 218 | 14.5 | 27.4 | 0.00 | 0.00 | 0.00 | 18 |